Location: Newark
(52.3735°N, 16.9806°E)
Time: 05:05:54
(UTC+00:00)

LilacSat-2 - Pass Details

Date: 04 December 2021
Orbit: 511 x 532 km, 97.5° (Epoch: 16 January)

Event Time Altitude Azimuth Distance (km) Brightness Sun altitude
Rises 15:50:12 0° 171° (S) 2,628 ? -10.0°
Reaches altitude 10° 15:52:18 10° 174° (S) 1,749 ? -10.3°
Maximum altitude 15:56:03 67° 258° (WSW) 571 ? -10.8°
Drops below altitude 10° 15:59:53 10° 342° (NNW) 1,778 ? -11.3°
Sets 16:02:01 0° 345° (NNW) 2,676 ? -11.6°
